Location: Oberkirch
(48.5323°N, 8.0787°E)
Time: 17:05:59
(UTC+00:00)

S-56A Canister/Altair - Pass Details

Date: 19 February 2026
Orbit: 633 x 2484 km, 38.9° (Epoch: 8 March)

Event Time Altitude Azimuth Distance (km) Brightness Sun altitude
Exits shadow 04:19:38 23° 227° (SW) 3,043 10.1 -21.9°
Maximum altitude 04:22:01 25° 208° (SSW) 3,094 10.3 -21.6°
Drops below altitude 10° 04:31:22 10° 160° (SSE) 4,709 11.7 -20.0°
Sets 04:36:25 0° 150° (SSE) 5,931 12.4 -19.2°
